This is the latest recevied weather packets stored in our database for station/object WW3TRG. If no packets are shown the sender has not sent any weather packets the latest 10 day(s).
| Time | Temp. | Humidity | Pressure | Rain* | Wind** | Luminosity | Snow |
|---|---|---|---|---|---|---|---|
| 1777473646 | 13.89° C | 67% | 1013.6 hPa | 0 mm | - | 135 W/m² | - |
| 1777473342 | 13.89° C | 67% | 1013.7 hPa | 0 mm | - | 154 W/m² | - |
| 1777473038 | 13.33° C | 67% | 1013.7 hPa | 0 mm | - | 177 W/m² | - |
| 1777472734 | 13.33° C | 68% | 1013.8 hPa | 0 mm | - | 174 W/m² | - |
| 1777472431 | 13.33° C | 72% | 1013.8 hPa | 0 mm | - | 124 W/m² | - |
| 1777472129 | 12.78° C | 71% | 1013.9 hPa | 0 mm | - | 102 W/m² | - |
| 1777471828 | 12.78° C | 71% | 1013.8 hPa | 0 mm | - | 95 W/m² | - |
| 1777471526 | 13.33° C | 70% | 1013.8 hPa | 0 mm | - | 86 W/m² | - |
| 1777471222 | 13.33° C | 69% | 1013.6 hPa | 0 mm | - | 121 W/m² | - |
| 1777470919 | 12.78° C | 71% | 1013.7 hPa | 0 mm | - | 144 W/m² | - |
| 1777470616 | 12.78° C | 73% | 1013.6 hPa | 0 mm | - | 131 W/m² | - |
| 1777470312 | 12.78° C | 73% | 1013.9 hPa | 0 mm | - | 121 W/m² | - |
| 1777470009 | 12.78° C | 72% | 1013.9 hPa | 0 mm | - | 72 W/m² | - |
| 1777469704 | 12.78° C | 73% | 1013.8 hPa | 0 mm | - | 87 W/m² | - |
| 1777469400 | 12.78° C | 76% | 1013.9 hPa | 0 mm | - | 88 W/m² | - |
| 1777469095 | 12.78° C | 74% | 1013.9 hPa | 0 mm | - | 95 W/m² | - |
| 1777468790 | 12.22° C | 76% | 1014 hPa | 0 mm | - | 89 W/m² | - |
| 1777468487 | 12.22° C | 74% | 1014 hPa | 0 mm | - | 55 W/m² | - |
| 1777468184 | 12.22° C | 76% | 1014.2 hPa | 0 mm | - | 40 W/m² | - |
| 1777467879 | 12.78° C | 74% | 1014.1 hPa | 0 mm | - | 48 W/m² | - |
| 1777467575 | 12.22° C | 72% | 1014.4 hPa | 0 mm | - | 44 W/m² | - |
| 1777467270 | 12.22° C | 70% | 1014.4 hPa | 0 mm | - | 61 W/m² | - |
| 1777466967 | 12.22° C | 72% | 1014.2 hPa | 0 mm | - | 73 W/m² | - |
| 1777466665 | 12.22° C | 71% | 1014.5 hPa | 0 mm | - | 69 W/m² | - |
| 1777466361 | 12.22° C | 72% | 1014.5 hPa | 0 mm | - | 49 W/m² | - |
* Rain latest hour (hover to see other rain measurements)
** Current wind speed in m/s (hover to see current wind gust speed)